Regional Weather Roundup
Issued by NWS

Home | Current Version | Previous Version | Graphics & Text | Print | Product List | Glossary On
Versions: 1 2 3 4 5 6 7 8 9 10 11 12 13 14 15 16 17 18 19 20 21 22 23 24 25 26 27 28 29 30 31 32 33 34 35 36 37 38 39 40 41 42 43 44 45 46 47 48 49 50
000
ASUS43 KTOP 040008
RWRKS

WEATHER ROUNDUP FOR KANSAS
NATIONAL WEATHER SERVICE GOODLAND KS
700 PM CDT MON AUG 03 2015

NOTE:  "FAIR" INDICATES FEW OR NO CLOUDS BELOW 12,000 FEET WITH NO
SIGNIFICANT WEATHER AND/OR OBSTRUCTIONS TO VISIBILITY.

KSZ001>006-013>018-027>032-041>047-040100-
NORTHWEST KANSAS

CITY           SKY/WX    TMP DP  RH WIND       PRES   REMARKS
GOODLAND       CLOUDY    82  58  43 S10       29.99R
6HR MIN TEMP:  81; 6HR MAX TEMP:  91;

HAYS           PTSUNNY   91  63  38 S14       29.90S
HILL CITY      MOSUNNY   92  66  42 SE9       29.90F
6HR MIN TEMP:  89; 6HR MAX TEMP:  95;

RUSSELL        PTSUNNY   91  67  44 S13       29.88F
6HR MIN TEMP:  90; 6HR MAX TEMP:  95;

$$

KSZ061>065-074>080-084>089-040100-
SOUTHWEST KANSAS

CITY           SKY/WX    TMP DP  RH WIND       PRES   REMARKS
DODGE CITY     MOSUNNY   85  63  47 S13       29.93S
6HR MIN TEMP:  85; 6HR MAX TEMP:  92;

ELKHART          N/A     78  67  69 N1          N/A
GARDEN CITY    PTSUNNY   85  63  47 S10       29.92F
6HR MIN TEMP:  85; 6HR MAX TEMP:  90;

GREAT BEND     SUNNY     90  66  45 S13       29.89F
LIBERAL        PTSUNNY   86  63  45 SE12      29.92S
PRATT          MOSUNNY   88  61  40 S13       29.92F
$$

KSZ066>073-081>083-090>101-040100-
SOUTHEAST KANSAS

CITY           SKY/WX    TMP DP  RH WIND       PRES   REMARKS
CHANUTE        PTSUNNY   88  66  48 S8        29.91S
6HR MIN TEMP:  88; 6HR MAX TEMP:  94;

COFFEYVILLE    MOSUNNY   91  67  44 S8        29.90S
6HR MIN TEMP:  91; 6HR MAX TEMP:  95;

HUTCHINSON     MOSUNNY   91  68  46 S13       29.90F HX  95
6HR MIN TEMP:  90; 6HR MAX TEMP:  93;

MEDICINE LODGE   N/A     89  69  51 SE6       29.89F
NEWTON         PTSUNNY   90  68  48 S10       29.93F
PARSONS        MOSUNNY   89  69  51 S6        29.92S
6HR MIN TEMP:  88; 6HR MAX TEMP:  95;

WICHITA INTL   MOSUNNY   89  71  55 SE12      29.89F HX  95
6HR MIN TEMP:  88; 6HR MAX TEMP:  92;

WICHITA JABRA  MOSUNNY   89  70  53 S9        29.90F
6HR MIN TEMP:  89; 6HR MAX TEMP:  92;

WICHITA MCCONL MOSUNNY   90  69  51 SE10      29.91S
$$

KSZ007>012-019>026-033>040-048>060-102>105-040100-
NORTHEAST KANSAS

CITY           SKY/WX    TMP DP  RH WIND       PRES   REMARKS
CONCORDIA      PTSUNNY   88  73  61 E7        29.88F HX  95
6HR MIN TEMP:  84; 6HR MAX TEMP:  93;

EMPORIA        PTSUNNY   88  71  57 S6        29.89F
6HR MIN TEMP:  88; 6HR MAX TEMP:  94;

LAWRENCE       SUNNY     90  72  55 S6        29.88S HX  97
6HR MIN TEMP:  89; 6HR MAX TEMP:  94;

MANHATTAN      MOSUNNY   92  70  48 SE6       29.87S HX  97
6HR MIN TEMP:  91; 6HR MAX TEMP:  96;

MARYSVILLE     PTSUNNY   81  73  78 NE12      29.90S
OLATHE IND     SUNNY     91  68  46 S7        29.90S HX  95
6HR MIN TEMP:  89; 6HR MAX TEMP:  93;

OLATHE EXE     SUNNY     90  67  46 CALM      29.89F
6HR MIN TEMP:  88; 6HR MAX TEMP:  93;

SALINA         CLOUDY    91  70  49 S10       29.87F HX  96
6HR MIN TEMP:  90; 6HR MAX TEMP:  96;

TOPEKA BILLARD SUNNY     91  71  51 SE3       29.88S HX  97
6HR MIN TEMP:  90; 6HR MAX TEMP:  93;

TOPEKA FORBES  MOSUNNY   92  71  50 S5        29.89S HX  98
6HR MIN TEMP:  90; 6HR MAX TEMP:  95;

$$



USA.gov is the U.S. government's official web portal to all federal, state and local government web resources and services.